Total_Precipitation_Accumulation
0.33 0.38 0.80 0.95 0.96 1.02 0.98 0.96 0.96 0.95 0.95 1.02 1.07 1.06 1.04 0.99 0.98 0.97 1.00 0.90 0.93 0.99 1.13 1.26 1.27 1.19 1.09 0.96 0.80 0.72 0.69 0.69 0.67 0.68 0.76 0.84 0.86 0.80 0.75 0.71 0.75 0.85 1.10
0.29 0.34 0.67 0.81 0.94 0.97 0.95 0.96 0.90 0.82 0.88 0.97 1.01 1.00 1.04 1.05 1.05 1.08 1.07 1.01 1.05 1.12 1.18 1.28 1.20 1.12 1.00 0.94 0.83 0.68 0.63 0.59 0.53 0.48 0.48 0.54 0.69 0.74 0.72 0.69 0.73 0.90 1.00
0.26 0.31 0.53 0.76 0.91 0.99 0.99 0.96 0.91 0.81 0.90 1.01 1.03 1.06 1.15 1.19 1.12 1.15 1.08 1.07 1.10 1.18 1.19 1.19 1.15 1.09 0.97 0.90 0.89 0.75 0.65 0.55 0.47 0.40 0.35 0.38 0.58 0.74 0.70 0.69 0.72 0.92 0.99
0.22 0.28 0.44 0.73 0.92 1.03 1.06 1.02 0.97 0.94 0.93 0.96 0.95 1.00 1.14 1.23 1.22 1.17 1.09 1.08 1.13 1.20 1.20 1.14 1.08 1.06 1.03 0.91 0.84 0.75 0.74 0.62 0.45 0.34 0.28 0.35 0.56 0.83 0.81 0.80 0.79 0.86 0.94
0.23 0.29 0.48 0.77 0.96 1.03 1.05 1.00 0.97 0.99 0.96 0.96 0.94 1.00 1.16 1.20 1.20 1.10 1.03 1.01 1.05 1.18 1.27 1.19 1.02 0.96 0.97 0.89 0.80 0.77 0.78 0.66 0.46 0.32 0.27 0.33 0.52 0.89 0.86 0.85 0.84 0.86 0.88
0.29 0.34 0.53 0.77 0.96 1.06 1.06 1.02 1.00 0.99 0.99 1.01 1.01 1.05 1.15 1.16 1.18 1.11 1.02 0.96 0.94 1.01 1.10 1.10 1.01 0.95 0.90 0.81 0.73 0.76 0.85 0.74 0.42 0.31 0.33 0.36 0.48 0.87 0.97 0.94 0.89 0.88 0.90
0.34 0.42 0.59 0.89 1.03 1.12 1.18 1.09 1.04 1.02 1.03 1.07 1.13 1.15 1.18 1.15 1.14 1.10 1.05 0.98 0.93 0.90 0.96 1.03 1.02 0.98 0.93 0.81 0.73 0.80 0.87 0.69 0.38 0.38 0.39 0.40 0.51 0.96 1.26 1.18 1.00 0.92 0.90
0.38 0.52 0.68 1.01 1.16 1.24 1.25 1.22 1.16 1.14 1.17 1.21 1.23 1.25 1.25 1.17 1.09 1.04 1.05 0.96 0.90 0.83 0.82 0.87 0.91 0.90 0.89 0.83 0.79 0.77 0.76 0.53 0.36 0.38 0.39 0.39 0.58 1.08 1.36 1.33 1.16 1.02 0.92
0.49 0.64 0.79 1.03 1.22 1.37 1.35 1.31 1.31 1.27 1.26 1.32 1.33 1.29 1.24 1.17 1.13 1.09 1.03 0.95 0.90 0.86 0.79 0.78 0.80 0.79 0.75 0.73 0.76 0.72 0.59 0.42 0.33 0.42 0.40 0.41 0.57 1.11 1.38 1.42 1.31 1.14 0.98
0.66 0.82 0.95 1.11 1.26 1.35 1.38 1.35 1.33 1.32 1.30 1.33 1.35 1.28 1.19 1.16 1.15 1.09 0.98 0.93 0.95 0.96 0.89 0.81 0.77 0.74 0.68 0.63 0.61 0.55 0.43 0.34 0.28 0.39 0.50 0.49 0.57 1.03 1.34 1.38 1.33 1.26 1.08
0.80 0.97 1.13 1.26 1.36 1.42 1.41 1.36 1.50 1.53 1.51 1.50 1.42 1.35 1.32 1.28 1.20 1.06 0.90 0.88 0.97 1.00 0.93 0.86 0.81 0.74 0.70 0.59 0.52 0.46 0.39 0.29 0.29 0.39 0.47 0.52 0.74 1.20 1.49 1.47 1.45 1.36 1.20
0.81 0.95 1.14 1.33 1.42 1.50 1.51 1.56 1.69 1.73 1.72 1.64 1.40 1.33 1.35 1.25 1.17 1.03 0.96 0.93 0.97 0.97 0.94 0.89 0.87 0.86 0.81 0.63 0.58 0.53 0.41 0.31 0.30 0.31 0.36 0.45 0.74 1.27 1.58 1.58 1.61 1.53 1.38
0.77 0.91 1.08 1.32 1.55 1.59 1.59 1.68 1.72 1.73 1.72 1.69 1.56 1.41 1.34 1.35 1.30 1.21 1.12 1.10 1.11 1.05 1.03 1.01 1.01 0.92 0.84 0.74 0.68 0.58 0.44 0.38 0.34 0.28 0.29 0.39 0.60 1.01 1.43 1.59 1.63 1.67 1.67
0.81 0.92 1.07 1.31 1.53 1.62 1.60 1.67 1.70 1.62 1.54 1.50 1.46 1.48 1.47 1.43 1.33 1.25 1.18 1.16 1.20 1.13 1.08 1.06 1.00 0.91 0.82 0.76 0.72 0.66 0.58 0.53 0.42 0.34 0.27 0.32 0.42 0.63 0.99 1.34 1.60 1.72 1.83
0.89 0.97 1.15 1.36 1.51 1.65 1.71 1.75 1.71 1.59 1.49 1.47 1.43 1.45 1.42 1.30 1.22 1.12 1.07 1.08 1.02 0.98 0.95 0.94 0.94 0.92 0.83 0.79 0.74 0.67 0.61 0.60 0.52 0.44 0.36 0.37 0.38 0.46 0.68 1.01 1.37 1.67 1.88
0.94 1.06 1.26 1.44 1.61 1.75 1.73 1.75 1.72 1.65 1.61 1.66 1.59 1.40 1.36 1.30 1.23 1.17 1.08 1.05 0.99 0.90 0.87 0.86 0.83 0.87 0.86 0.77 0.72 0.63 0.57 0.55 0.54 0.49 0.46 0.47 0.42 0.43 0.55 0.80 1.10 1.42 1.79
1.03 1.17 1.34 1.48 1.71 1.88 1.85 1.82 1.79 1.76 1.71 1.67 1.69 1.64 1.48 1.37 1.31 1.28 1.19 1.07 1.04 1.01 0.99 0.97 0.93 0.91 0.90 0.83 0.76 0.67 0.59 0.54 0.55 0.56 0.56 0.54 0.52 0.50 0.56 0.73 0.91 1.16 1.60
1.18 1.31 1.43 1.61 1.79 1.92 1.96 1.95 1.87 1.81 1.84 1.75 1.74 1.80 1.79 1.59 1.42 1.35 1.29 1.19 1.16 1.18 1.16 1.13 1.05 1.01 0.94 0.88 0.81 0.72 0.65 0.59 0.52 0.52 0.56 0.55 0.53 0.52 0.56 0.63 0.79 1.03 1.36
1.23 1.38 1.50 1.64 1.84 2.02 2.10 2.08 2.03 1.92 1.90 1.89 1.86 1.82 1.87 1.90 1.70 1.49 1.38 1.36 1.37 1.37 1.30 1.21 1.13 1.03 0.98 0.90 0.83 0.76 0.67 0.61 0.57 0.54 0.52 0.53 0.55 0.54 0.55 0.58 0.63 0.79 1.07
1.21 1.40 1.58 1.72 1.88 2.08 2.27 2.30 2.27 2.16 1.98 1.94 1.93 1.82 1.76 1.85 1.88 1.75 1.57 1.49 1.51 1.52 1.46 1.33 1.21 1.14 1.07 1.05 1.00 0.89 0.75 0.66 0.61 0.57 0.53 0.54 0.56 0.54 0.53 0.58 0.63 0.64 0.75
1.22 1.37 1.52 1.65 1.80 2.02 2.19 2.28 2.26 2.17 2.00 1.92 1.86 1.81 1.79 1.83 1.88 1.87 1.68 1.60 1.49 1.46 1.43 1.38 1.32 1.29 1.23 1.22 1.33 1.23 1.03 0.86 0.76 0.69 0.63 0.60 0.60 0.61 0.67 0.72 0.77 0.74 0.72
1.10 1.24 1.48 1.65 1.74 1.91 2.08 2.11 2.22 2.18 2.08 1.96 1.88 1.83 1.76 1.78 1.89 1.98 1.89 1.77 1.69 1.59 1.56 1.58 1.54 1.48 1.39 1.30 1.40 1.49 1.36 1.22 0.98 0.77 0.70 0.65 0.67 0.72 0.81 0.85 0.89 0.89 0.85
0.99 1.12 1.32 1.60 1.77 1.85 2.06 2.34 2.54 2.61 2.42 2.24 2.05 1.89 1.77 1.74 1.78 1.91 2.00 1.95 1.90 1.85 1.74 1.61 1.61 1.60 1.58 1.45 1.35 1.62 1.63 1.29 0.96 0.78 0.67 0.61 0.62 0.64 0.65 0.70 0.76 0.81 0.89
0.91 1.09 1.27 1.39 1.66 1.90 2.05 2.30 2.54 2.65 2.48 2.12 1.98 1.92 1.86 1.78 1.76 1.79 1.87 1.91 1.89 1.86 1.77 1.65 1.56 1.52 1.61 1.65 1.47 1.32 1.27 1.20 1.20 1.00 0.75 0.63 0.61 0.61 0.59 0.58 0.59 0.65 0.76
0.87 1.06 1.25 1.35 1.54 1.83 2.03 2.16 2.44 2.59 2.48 2.30 2.17 2.03 1.89 1.84 1.81 1.75 1.76 1.82 1.87 1.84 1.80 1.73 1.67 1.67 1.68 1.67 1.61 1.42 1.23 1.08 1.07 1.16 0.97 0.77 0.70 0.67 0.63 0.60 0.60 0.59 0.61
0.84 0.98 1.20 1.36 1.44 1.70 1.95 2.12 2.27 2.49 2.60 2.50 2.35 2.23 2.06 1.97 1.90 1.83 1.72 1.75 1.84 1.87 1.85 1.84 1.81 1.79 1.82 1.74 1.63 1.54 1.52 1.50 1.29 1.20 1.08 0.83 0.78 0.74 0.72 0.70 0.68 0.66 0.63